Regional Weather Roundup
Issued by NWS

Home | Current Version | Previous Version | Graphics & Text | Print | Product List | Glossary On
Versions: 1 2 3 4 5 6 7 8 9 10 11 12 13 14 15 16 17 18 19 20 21 22 23 24 25 26 27 28 29 30 31 32 33 34 35 36 37 38 39 40 41 42 43 44 45 46 47 48 49 50
000
ASUS43 KFSD 260802
RWRSD

WEATHER ROUNDUP FOR SOUTH DAKOTA
NATIONAL WEATHER SERVICE SIOUX FALLS SD
300 AM CDT FRI MAY 26 2017

NOTE: "FAIR" INDICATES FEW OR NO CLOUDS BELOW 12,000 FEET WITH NO
SIGNIFICANT WEATHER AND/OR OBSTRUCTIONS TO VISIBILITY.


SDZ001>005-009-010-012>017-260900-
NORTHWEST AND NORTH CENTRAL SOUTH DAKOTA

CITY           SKY/WX    TMP DP  RH WIND       PRES   REMARKS
BUFFALO          N/A     49  40  71 W15       29.73R
FAITH            N/A     46  41  82 W10       29.77R
MOBRIDGE       CLEAR     49  42  77 NW6       29.69R
$$

SDZ012>016-024>037-041>051-057-063-072>074-260900-
SOUTHWEST AND SOUTH CENTRAL SOUTH DAKOTA

CITY           SKY/WX    TMP DP  RH WIND       PRES   REMARKS
RAPID CTY ARPT PTCLDY    43  34  70 W3        29.84R
PIERRE         PTCLDY    54  42  64 W10       29.73S
CUSTER         CLOUDY    42  27  55 W7        29.88R
ELLSWORTH AFB  CLOUDY    46  37  71 NW9       29.83R
PHILIP         CLEAR     45  40  82 W8        29.81R
PINE RIDGE     CLEAR     45  41  86 S3        29.86R
WINNER         FAIR      55  44  66 NW10      29.78R
$$

SDZ004>011-016>023-039-040-260900-
NORTHEAST SOUTH DAKOTA

CITY           SKY/WX    TMP DP  RH WIND       PRES   REMARKS
ABERDEEN       MOCLDY    55  42  61 W12       29.66R
WATERTOWN      CLOUDY    50  49  96 CALM      29.66R
BROOKINGS      CLEAR     53  50  89 CALM      29.67R
SISSETON         N/A     55  52  89 W5        29.61R
$$

SDZ017-020-022-023-036>040-048>070-260900-
SOUTHEAST SOUTH DAKOTA

CITY           SKY/WX    TMP DP  RH WIND       PRES   REMARKS
SIOUX FALLS    PTCLDY    52  51  97 CALM      29.65S
HURON          CLOUDY    52  46  80 NW8       29.69R
CHAMBERLAIN    CLOUDY    58  46  63 W16       29.75R
MITCHELL       PTCLDY    56  46  69 NW9       29.69R
YANKTON        CLOUDY    59  54  83 W5        29.65S
$$

ABBREVIATIONS USED IN REMARKS
   TC - TEMPERATURE IN CELSIUS
  WCI - WIND CHILL INDEX
   HX - HEAT INDEX
  VSB - VISIBILITY





USA.gov is the U.S. government's official web portal to all federal, state and local government web resources and services.